When you browse on this site, cookies collect data to enhance your experience and personalize the content and advertising you see.
Visit our Privacy Policy to learn more. By continuing to use the site, you agree to this use of cookies and data.
  • In Czech Republic
  • List of Countries
  • For 7 days
  • Water Temperature
  • Weather Map
  • Weather Widgets
  • user-avatar
    Login

    Hourly Weather Preili

    Today, 26 May, Tuesday

    Time Temperature Precipitation Wind Pressure Humidity
    00:00 +8°C° 0 mm 1 mps 758 mmHg 93%
    01:00 +8°C° 0 mm 1 mps 759 mmHg 94%
    02:00 +8°C° 0 mm 1 mps 759 mmHg 93%
    03:00 +8°C° 0 mm 1 mps 759 mmHg 93%
    04:00 +8°C° 0 mm 1 mps 760 mmHg 93%
    05:00 +8°C° 0 mm 1 mps 760 mmHg 92%
    06:00 +10°C° 0 mm 1 mps 760 mmHg 86%
    07:00 +12°C° 0 mm 2 mps 760 mmHg 80%
    08:00 +14°C° 0 mm 2 mps 761 mmHg 74%
    09:00 +16°C° 0.1 mm 2 mps 761 mmHg 68%
    10:00 +17°C° 0.1 mm 2 mps 761 mmHg 61%
    11:00 +18°C° 0.1 mm 3 mps 761 mmHg 54%
    12:00 +19°C° 0.1 mm 3 mps 761 mmHg 52%
    13:00 +19°C° 0.1 mm 3 mps 761 mmHg 49%
    14:00 +20°C° 0.1 mm 3 mps 760 mmHg 47%
    15:00 +20°C° 0 mm 3 mps 760 mmHg 46%
    16:00 +19°C° 0 mm 2 mps 760 mmHg 46%
    17:00 +19°C° 0 mm 2 mps 760 mmHg 46%
    18:00 +17°C° 0 mm 2 mps 760 mmHg 53%
    19:00 +16°C° 0 mm 2 mps 760 mmHg 61%
    20:00 +14°C° 0 mm 1 mps 760 mmHg 69%
    21:00 +12°C° 0 mm 1 mps 760 mmHg 69%
    22:00 +11°C° 0 mm 1 mps 760 mmHg 70%
    23:00 +10°C° 0 mm 1 mps 760 mmHg 71%

    Tomorrow, 27 May, Wednesday

    Time Temperature Precipitation Wind Pressure Humidity
    00:00 +10°C° 0 mm 1 mps 760 mmHg 73%
    01:00 +9°C° 0 mm 1 mps 760 mmHg 76%
    02:00 +8°C° 0 mm 1 mps 759 mmHg 79%
    03:00 +9°C° 0 mm 1 mps 759 mmHg 79%
    04:00 +9°C° 0 mm 1 mps 759 mmHg 80%
    05:00 +9°C° 0 mm 1 mps 759 mmHg 80%
    06:00 +11°C° 0 mm 1 mps 759 mmHg 73%
    07:00 +13°C° 0 mm 1 mps 759 mmHg 66%
    08:00 +15°C° 0 mm 1 mps 759 mmHg 59%
    09:00 +18°C° 0 mm 1 mps 759 mmHg 54%
    10:00 +18°C° 0 mm 2 mps 758 mmHg 49%
    11:00 +20°C° 0 mm 2 mps 758 mmHg 44%
    12:00 +20°C° 0 mm 2 mps 757 mmHg 45%
    13:00 +19°C° 0 mm 2 mps 757 mmHg 47%
    14:00 +19°C° 0 mm 2 mps 757 mmHg 48%
    15:00 +19°C° 0 mm 2 mps 756 mmHg 50%
    16:00 +19°C° 0 mm 2 mps 756 mmHg 53%
    17:00 +19°C° 0 mm 2 mps 756 mmHg 55%
    18:00 +17°C° 0 mm 2 mps 756 mmHg 62%
    19:00 +16°C° 0 mm 1 mps 755 mmHg 68%
    20:00 +14°C° 0 mm 1 mps 755 mmHg 75%
    21:00 +13°C° 0 mm 1 mps 755 mmHg 78%
    22:00 +12°C° 0 mm 1 mps 755 mmHg 81%
    23:00 +11°C° 0 mm 1 mps 755 mmHg 84%

    Day after tomorrow, 28 May, Thursday

    Time Temperature Precipitation Wind Pressure Humidity
    00:00 +10°C° 0 mm 1 mps 755 mmHg 85%
    01:00 +10°C° 0 mm 1 mps 755 mmHg 85%
    02:00 +10°C° 0 mm 1 mps 754 mmHg 86%
    03:00 +10°C° 0 mm 1 mps 754 mmHg 86%
    04:00 +10°C° 0 mm 1 mps 754 mmHg 86%
    05:00 +10°C° 0 mm 1 mps 754 mmHg 86%
    06:00 +12°C° 0 mm 1 mps 754 mmHg 81%
    07:00 +13°C° 0 mm 1 mps 754 mmHg 76%
    08:00 +14°C° 0 mm 1 mps 754 mmHg 70%
    09:00 +15°C° 0.2 mm 1 mps 754 mmHg 71%
    10:00 +15°C° 0.2 mm 1 mps 754 mmHg 71%
    11:00 +15°C° 0.2 mm 1 mps 754 mmHg 71%
    12:00 +15°C° 0.1 mm 2 mps 753 mmHg 72%
    13:00 +14°C° 0.1 mm 3 mps 753 mmHg 72%
    14:00 +14°C° 0.1 mm 3 mps 753 mmHg 73%
    15:00 +14°C° 0.1 mm 3 mps 753 mmHg 73%
    16:00 +14°C° 0.1 mm 3 mps 753 mmHg 73%
    17:00 +14°C° 0.1 mm 3 mps 753 mmHg 73%
    18:00 +13°C° 0 mm 3 mps 753 mmHg 77%
    19:00 +12°C° 0 mm 3 mps 753 mmHg 80%
    20:00 +12°C° 0 mm 2 mps 753 mmHg 83%
    21:00 +12°C° 0 mm 2 mps 753 mmHg 83%
    22:00 +11°C° 0 mm 3 mps 753 mmHg 84%
    23:00 +10°C° 0 mm 3 mps 753 mmHg 84%

    29 May, Friday

    Time Temperature Precipitation Wind Pressure Humidity
    00:00 +9°C° 0 mm 3 mps 753 mmHg 86%
    01:00 +8°C° 0 mm 3 mps 753 mmHg 88%
    02:00 +7°C° 0 mm 3 mps 753 mmHg 91%
    03:00 +5°C° 0 mm 3 mps 753 mmHg 90%
    04:00 +5°C° 0 mm 3 mps 753 mmHg 89%
    05:00 +5°C° 0 mm 3 mps 753 mmHg 88%
    06:00 +7°C° 0 mm 3 mps 753 mmHg 80%
    07:00 +9°C° 0 mm 3 mps 753 mmHg 73%
    08:00 +11°C° 0 mm 3 mps 753 mmHg 65%
    09:00 +12°C° 0 mm 4 mps 753 mmHg 63%
    10:00 +13°C° 0 mm 4 mps 753 mmHg 61%
    11:00 +14°C° 0 mm 4 mps 752 mmHg 58%
    12:00 +15°C° 0.3 mm 4 mps 752 mmHg 60%
    13:00 +15°C° 0.3 mm 5 mps 752 mmHg 62%
    14:00 +15°C° 0.3 mm 5 mps 752 mmHg 64%
    15:00 +15°C° 0.2 mm 4 mps 752 mmHg 63%
    16:00 +15°C° 0.2 mm 4 mps 752 mmHg 63%
    17:00 +15°C° 0.2 mm 4 mps 752 mmHg 62%
    18:00 +14°C° 0.1 mm 3 mps 752 mmHg 67%
    19:00 +13°C° 0.1 mm 3 mps 752 mmHg 73%
    20:00 +12°C° 0.1 mm 2 mps 753 mmHg 78%
    21:00 +10°C° 0 mm 2 mps 753 mmHg 78%
    22:00 +9°C° 0 mm 2 mps 753 mmHg 77%
    23:00 +8°C° 0 mm 2 mps 753 mmHg 77%

    30 May, Saturday

    Time Temperature Precipitation Wind Pressure Humidity
    00:00 +7°C° 0 mm 2 mps 753 mmHg 77%
    01:00 +7°C° 0 mm 2 mps 753 mmHg 78%
    02:00 +6°C° 0 mm 2 mps 754 mmHg 78%
    03:00 +6°C° 0 mm 2 mps 754 mmHg 80%
    04:00 +6°C° 0 mm 2 mps 754 mmHg 81%
    05:00 +6°C° 0 mm 2 mps 754 mmHg 82%
    06:00 +8°C° 0 mm 2 mps 754 mmHg 76%
    07:00 +10°C° 0 mm 2 mps 754 mmHg 70%
    08:00 +13°C° 0 mm 2 mps 754 mmHg 64%
    09:00 +15°C° 0 mm 2 mps 753 mmHg 58%
    10:00 +16°C° 0 mm 3 mps 753 mmHg 53%
    11:00 +17°C° 0 mm 3 mps 753 mmHg 48%
    12:00 +18°C° 0 mm 3 mps 753 mmHg 47%
    13:00 +19°C° 0 mm 3 mps 753 mmHg 47%
    14:00 +19°C° 0 mm 3 mps 752 mmHg 46%
    15:00 +19°C° 0 mm 3 mps 752 mmHg 48%
    16:00 +19°C° 0 mm 3 mps 752 mmHg 51%
    17:00 +19°C° 0 mm 4 mps 751 mmHg 53%
    18:00 +18°C° 0 mm 3 mps 751 mmHg 60%
    19:00 +17°C° 0 mm 3 mps 751 mmHg 68%
    20:00 +16°C° 0 mm 3 mps 751 mmHg 75%
    21:00 +14°C° 0.1 mm 3 mps 751 mmHg 80%
    22:00 +14°C° 0.1 mm 4 mps 751 mmHg 85%
    23:00 +13°C° 0.1 mm 4 mps 751 mmHg 89%

    31 May, Sunday

    Time Temperature Precipitation Wind Pressure Humidity
    00:00 +12°C° 0 mm 4 mps 751 mmHg 85%
    01:00 +12°C° 0 mm 5 mps 751 mmHg 80%
    02:00 +10°C° 0 mm 5 mps 750 mmHg 75%
    03:00 +10°C° 0 mm 5 mps 750 mmHg 74%
    04:00 +10°C° 0 mm 5 mps 750 mmHg 72%
    05:00 +9°C° 0 mm 5 mps 750 mmHg 70%
    06:00 +10°C° 0 mm 5 mps 750 mmHg 68%
    07:00 +11°C° 0 mm 6 mps 750 mmHg 66%
    08:00 +13°C° 0 mm 6 mps 751 mmHg 64%
    09:00 +14°C° 0 mm 7 mps 751 mmHg 60%
    10:00 +15°C° 0 mm 7 mps 750 mmHg 56%
    11:00 +16°C° 0 mm 7 mps 750 mmHg 51%
    12:00 +17°C° 0 mm 7 mps 750 mmHg 50%
    13:00 +17°C° 0 mm 7 mps 750 mmHg 48%
    14:00 +18°C° 0 mm 7 mps 750 mmHg 47%
    15:00 +18°C° 0 mm 7 mps 750 mmHg 48%
    16:00 +19°C° 0 mm 6 mps 750 mmHg 49%
    17:00 +19°C° 0 mm 6 mps 750 mmHg 51%
    18:00 +17°C° 0 mm 5 mps 750 mmHg 56%
    19:00 +15°C° 0 mm 5 mps 750 mmHg 61%
    20:00 +14°C° 0 mm 4 mps 750 mmHg 66%
    21:00 +13°C° 0 mm 4 mps 751 mmHg 66%
    22:00 +12°C° 0 mm 4 mps 751 mmHg 66%
    23:00 +12°C° 0 mm 4 mps 752 mmHg 66%
    Show more